Theta_e
342 341 339 341 341 339 339 343 340 339 339 341 342 344 351 350 350 351 351 351 348 350 351 351 352 352 353 352 351 351 350 351 350 351 351 350 350 350 347 346 343 343 346
342 341 340 340 338 343 343 336 336 339 339 339 345 350 351 350 349 350 351 351 351 350 350 350 351 352 351 351 349 345 347 348 351 350 351 351 350 351 350 347 347 347 348
341 342 343 341 343 345 341 340 338 335 341 338 345 350 351 352 352 348 352 350 349 350 349 351 352 351 349 351 350 351 351 350 349 349 349 348 350 348 349 350 347 348 347
341 342 341 341 344 345 344 344 339 339 343 345 347 351 352 351 351 352 352 350 351 351 351 352 352 351 351 350 349 350 350 350 351 349 347 349 350 348 349 348 347 347 346
340 341 341 340 344 345 342 344 342 343 346 350 348 352 351 351 352 352 348 346 345 346 349 350 348 345 343 344 345 345 346 351 347 345 347 343 346 350 349 348 346 344 341
340 341 341 340 346 347 346 347 348 347 346 345 352 352 352 352 352 352 352 352 351 349 347 341 340 341 343 344 346 346 344 352 344 342 343 341 340 344 346 347 348 347 348
342 344 346 348 351 350 349 349 351 349 353 351 352 353 352 353 352 352 352 352 351 350 344 340 341 343 342 341 345 346 340 339 337 339 340 334 337 341 344 339 335 335 338
344 347 347 347 350 351 351 349 350 351 349 348 352 353 353 352 353 352 352 351 350 348 337 335 339 340 339 339 348 346 343 344 341 333 330 330 334 340 339 334 334 335 335
347 348 347 346 349 348 351 350 348 348 345 346 345 348 352 353 352 350 352 352 350 345 338 329 334 335 337 338 343 345 345 345 337 335 338 333 331 335 335 334 334 334 334
347 347 350 350 345 347 347 351 349 348 346 349 346 347 350 350 349 347 346 348 347 342 336 335 330 335 336 338 339 343 343 340 340 333 329 330 330 332 333 334 335 336 338
351 347 348 349 346 345 345 348 348 349 348 348 346 342 343 344 342 343 345 346 346 345 343 337 336 336 337 338 338 338 340 342 341 333 328 330 333 336 338 339 340 342 342
349 348 346 345 348 347 348 344 343 343 339 339 339 340 340 342 344 343 342 342 343 343 344 344 344 342 340 339 339 342 345 343 339 329 331 336 340 342 343 344 344 345 346
340 341 343 346 346 346 343 344 343 343 338 341 344 344 345 344 342 340 339 337 343 345 346 346 346 346 346 346 347 347 342 337 333 331 334 336 341 342 344 345 346 347 348
342 340 341 342 343 343 342 343 343 345 340 344 346 347 342 341 342 341 342 344 345 346 347 346 344 343 346 346 343 341 335 335 339 340 340 340 338 340 342 349 348 347 347
346 346 346 342 342 341 343 346 348 349 347 347 346 343 342 340 337 343 342 345 346 346 346 346 347 347 346 343 342 340 339 342 342 342 340 342 342 343 344 345 347 347 348
347 347 346 344 342 340 344 348 349 349 348 347 344 345 341 338 343 343 346 345 346 346 347 347 347 345 345 345 345 341 339 338 341 342 344 344 346 346 346 347 348 349 350
346 340 345 344 346 345 347 347 348 348 346 343 340 344 341 342 345 347 345 350 350 349 347 347 349 346 345 344 345 346 346 347 348 349 347 345 347 347 348 348 349 351 352
342 343 344 346 348 346 345 346 348 348 344 340 343 343 341 343 345 347 348 350 349 351 349 353 351 346 345 345 345 346 346 347 348 348 348 348 346 346 348 349 350 350 352
345 346 348 346 346 348 345 346 345 347 343 343 341 342 342 343 345 346 348 349 348 351 351 352 354 353 347 346 345 346 346 347 347 347 345 343 341 340 345 346 348 350 349
345 347 347 345 343 345 345 344 345 346 348 345 345 338 343 343 344 346 348 350 350 351 353 355 353 354 350 349 344 344 344 344 345 344 344 343 339 335 345 346 347 345 348
347 347 345 344 343 342 344 346 344 344 347 342 346 347 347 338 345 347 344 347 348 350 353 354 355 351 345 343 340 340 341 342 341 340 336 332 332 335 344 344 346 346 346
346 346 343 340 343 344 345 345 344 346 346 342 347 347 346 346 347 349 348 348 348 351 351 354 353 349 346 344 345 342 340 342 338 338 338 336 338 336 341 336 337 342 346
346 344 341 343 342 345 344 345 347 347 348 346 347 348 347 347 346 347 348 345 347 350 352 353 351 348 341 338 343 343 337 340 338 334 338 339 336 335 336 334 335 340 346
347 345 341 342 342 343 342 344 347 346 348 347 347 346 347 348 347 348 348 348 347 350 351 351 348 346 346 339 337 338 337 337 335 335 335 337 338 335 335 335 337 338 344
346 347 344 343 342 345 346 345 346 347 346 345 345 347 346 347 346 348 350 350 349 350 351 352 349 339 343 338 335 340 339 337 336 335 335 334 337 337 337 336 344 343 346
347 347 346 345 343 346 346 346 347 345 345 346 346 346 346 346 347 348 348 349 348 347 350 353 351 350 350 346 343 341 342 345 343 340 335 337 338 338 337 340 344 345 348
Wind_Speed
9 13 16 13 13 14 13 13 15 15 15 14 14 16 15 16 16 15 15 15 14 15 14 14 15 15 16 16 15 14 13 12 12 12 10 10 10 11 11 11 11 10 9
14 12 15 15 12 12 13 16 16 15 14 15 14 15 16 16 16 15 15 15 14 14 13 14 14 15 16 17 15 15 13 13 14 12 11 10 10 10 9 9 10 10 10
14 14 14 15 13 11 13 14 16 12 13 14 14 15 15 15 16 16 14 14 14 14 12 13 14 15 14 14 14 14 13 11 11 11 11 12 11 10 8 8 8 9 8
17 17 17 17 14 12 11 12 14 12 12 13 14 14 15 15 15 13 13 13 12 12 12 13 12 11 12 12 12 9 7 10 10 10 11 9 8 7 8 6 7 7 6
18 17 17 16 14 12 11 12 12 12 12 13 14 14 14 14 12 12 11 12 11 11 12 11 10 11 12 12 11 10 6 8 5 6 6 6 6 7 7 6 4 5 5
20 17 15 14 12 10 10 11 10 11 13 13 13 12 13 11 11 10 10 9 8 10 9 9 10 10 10 10 9 8 8 6 3 4 4 5 5 4 3 4 4 4 4
21 16 14 13 12 12 10 10 11 10 11 12 13 12 11 9 8 7 7 6 8 8 8 9 9 8 8 8 4 2 4 4 2 3 3 4 4 4 3 3 2 0 1
21 16 14 13 14 12 13 11 11 10 9 10 11 11 9 8 8 7 6 6 8 8 8 8 7 6 8 8 8 7 3 1 2 3 2 3 3 3 3 2 2 1 1
20 17 15 14 14 13 13 13 13 11 12 10 10 10 8 8 7 8 7 8 7 7 7 6 7 5 5 5 5 3 2 3 1 1 2 2 3 2 2 2 2 2 3
20 18 16 13 14 14 15 12 12 12 10 9 9 8 8 8 8 8 8 8 8 8 8 6 5 4 4 4 3 1 2 3 3 1 0 2 2 3 3 4 5 6 6
19 19 17 15 14 14 13 13 13 14 12 10 9 9 9 9 8 7 7 6 6 6 6 5 5 3 3 2 1 3 7 6 5 4 1 2 4 4 5 5 6 7 9
20 19 16 16 14 14 15 15 14 13 12 11 11 9 9 7 6 5 4 5 4 2 1 1 0 2 2 4 6 7 9 8 8 4 2 3 4 5 5 6 7 9 10
23 20 18 17 16 16 16 16 14 13 12 11 9 8 7 5 4 5 5 7 4 4 5 3 3 5 6 8 8 6 6 6 3 4 3 4 6 7 9 10 11 13 14
23 21 18 16 17 16 16 16 15 13 10 10 7 6 5 4 4 3 4 5 6 7 6 6 5 6 6 1 2 2 3 3 6 6 6 8 9 10 13 15 16 16 15
25 22 20 17 15 16 17 15 12 9 8 7 7 6 4 3 4 4 4 5 8 9 8 8 9 8 5 6 3 3 3 4 4 8 7 7 9 10 12 12 12 13 15
27 23 21 18 14 16 15 13 11 7 9 8 8 5 2 5 1 5 7 7 7 7 7 7 9 5 3 5 5 1 1 2 4 4 7 7 10 10 10 9 9 10 13
29 24 24 19 17 17 15 12 11 10 9 9 9 9 4 5 5 7 7 8 9 7 5 5 5 3 3 6 8 9 6 6 5 4 4 5 6 9 9 5 8 10 12
30 27 25 20 18 17 16 14 12 9 12 8 11 9 6 9 5 6 6 9 11 11 9 11 7 1 2 3 5 9 10 6 4 3 5 3 3 9 11 6 6 9 14
28 28 24 18 16 21 16 13 12 14 13 10 10 8 7 5 3 5 6 9 8 10 10 10 9 7 4 2 1 1 1 3 5 7 9 9 11 11 13 13 16 13 16
27 28 25 22 18 16 16 9 12 12 11 10 6 7 5 0 7 4 6 9 10 9 11 11 15 17 12 12 18 15 11 8 10 9 7 4 5 12 14 17 18 16 16
27 28 26 24 19 17 14 14 16 12 14 14 8 6 3 6 6 4 6 7 9 10 11 11 12 16 22 24 22 18 11 5 3 5 6 5 7 7 14 20 20 17 18
29 29 27 24 20 17 13 16 16 16 14 14 11 7 5 6 5 2 5 8 8 9 11 12 10 13 18 14 4 3 2 5 3 0 3 5 8 10 9 12 15 21 16
29 30 30 27 24 18 15 11 11 14 16 17 12 8 6 5 7 3 4 8 7 7 10 11 9 10 16 11 10 6 2 4 3 4 5 5 10 14 6 9 13 16 15
30 30 29 27 27 19 17 12 11 15 13 15 14 12 9 8 6 6 3 3 4 6 7 8 9 4 5 6 4 5 2 3 2 4 6 5 9 7 12 13 7 9 12
27 32 29 27 25 22 18 15 16 15 15 15 16 14 11 10 7 7 4 2 2 4 5 6 7 9 6 4 2 1 2 4 3 2 2 6 4 5 7 5 4 8 9
27 27 30 28 25 24 20 17 16 16 16 13 15 15 13 12 10 10 7 4 3 2 3 3 3 5 5 5 4 1 1 1 3 3 2 2 5 3 6 2 5 10 9
Wind_Direction
152 147 160 150 136 130 120 108 90 100 108 109 118 120 110 110 115 111 110 108 106 102 104 104 101 99 96 99 103 101 104 111 109 101 103 106 104 105 106 110 112 118 122
146 148 158 157 138 126 110 97 96 99 104 111 113 114 115 111 110 111 109 106 106 104 105 106 102 97 96 99 100 92 96 101 102 100 96 98 99 105 109 115 120 129 131
145 145 157 152 147 126 118 115 105 107 114 113 109 116 115 110 109 117 108 108 105 106 106 107 103 99 101 98 95 88 87 91 98 108 105 95 91 98 112 117 121 116 130
139 142 143 144 140 138 137 128 117 123 121 123 122 115 115 115 117 115 108 112 111 111 110 106 103 100 97 92 85 81 105 91 96 102 101 103 99 107 105 109 105 116 111
141 140 140 143 142 147 148 129 122 121 122 122 123 120 119 116 114 111 108 110 112 110 111 113 109 107 95 88 81 67 116 139 62 105 108 104 113 90 109 107 105 104 120
142 141 145 150 145 153 153 133 135 126 125 127 123 122 119 116 116 118 114 110 104 104 105 114 109 102 87 81 88 62 92 138 136 108 123 118 113 111 120 126 115 114 118
146 147 147 151 147 146 146 138 131 135 134 128 123 124 122 120 117 112 107 93 80 85 100 109 114 103 75 63 53 104 101 104 141 141 130 124 125 121 118 109 97 115 243
146 147 151 151 148 143 143 140 137 142 137 127 129 127 125 117 108 95 83 80 66 67 93 116 126 105 83 69 64 103 83 87 154 139 111 111 113 117 104 90 79 32 317
150 151 152 152 147 148 142 137 141 147 134 127 118 118 113 103 95 93 83 69 61 63 75 108 130 114 100 95 104 151 252 289 353 141 133 140 104 87 60 36 5 332 310
158 160 153 156 147 150 140 139 141 143 136 128 119 116 111 103 102 98 88 74 65 63 69 86 123 148 146 149 150 108 299 250 294 322 170 93 76 56 34 10 344 325 307
161 164 163 167 152 145 137 144 149 153 154 141 132 132 129 121 107 85 74 64 51 45 57 75 92 120 166 217 258 290 304 292 299 315 345 42 40 34 18 351 329 315 307
172 173 172 168 160 148 149 154 153 147 155 148 147 145 136 127 107 80 54 26 6 7 11 49 134 238 249 270 283 310 315 293 294 315 1 37 20 8 352 334 322 312 307
175 176 179 172 166 163 162 155 147 144 148 147 152 151 152 143 108 83 48 28 30 10 354 337 300 301 300 293 294 309 316 310 327 325 338 349 353 346 339 333 326 319 320
173 174 174 177 172 169 166 157 152 155 155 166 175 184 178 158 109 65 14 338 353 3 5 355 343 344 14 320 260 321 340 24 27 5 2 352 336 331 334 324 321 323 324
175 175 172 171 175 174 170 166 162 170 177 174 182 157 151 150 113 14 24 36 11 13 17 30 29 27 54 82 71 229 105 63 53 25 354 348 339 335 328 332 341 341 340
180 181 178 175 177 184 183 181 176 180 171 173 174 170 157 175 357 65 31 44 46 37 39 33 30 34 35 80 69 90 79 308 334 337 345 351 4 353 335 342 353 350 358
186 184 184 186 188 190 184 183 190 185 199 196 194 178 159 152 88 55 66 49 44 31 19 10 346 323 25 77 65 61 32 344 346 338 292 310 7 19 12 337 351 2 6
177 179 181 187 191 191 194 194 200 213 186 178 159 154 166 149 62 66 50 34 73 61 68 69 60 254 203 59 37 33 38 37 34 71 98 119 46 31 41 47 350 5 10
180 174 176 176 178 193 193 202 210 206 197 182 163 172 117 145 64 43 53 52 78 60 64 60 49 53 73 41 332 28 351 126 115 120 117 99 85 56 65 62 51 48 18
189 183 179 183 171 166 178 182 190 201 206 196 168 158 165 161 117 105 64 69 78 61 59 61 77 70 82 116 112 106 105 122 166 171 182 184 96 44 56 67 60 41 23
187 184 185 182 185 177 179 190 189 210 202 198 185 172 148 167 104 97 73 72 64 63 52 58 86 82 114 125 113 100 102 109 152 205 242 293 323 25 65 60 53 34 18
190 187 185 181 180 177 184 189 201 192 192 203 202 190 149 136 134 91 65 61 66 69 64 55 66 88 114 152 127 92 337 314 331 266 8 55 34 34 73 38 39 21 18
194 191 183 178 176 182 175 167 174 187 206 199 206 205 207 166 160 141 73 61 80 72 71 53 53 93 113 96 171 183 134 230 298 285 352 38 45 21 45 352 26 359 346
198 191 191 185 181 187 199 193 188 196 180 197 200 208 198 194 193 181 162 104 80 91 91 62 62 106 132 132 94 67 160 171 174 334 360 347 331 347 4 21 18 326 333
194 196 194 193 192 186 191 189 189 185 191 192 203 209 209 214 216 195 199 173 150 118 92 78 82 103 116 130 49 225 39 34 101 114 311 343 1 42 30 37 2 338 343
188 192 195 195 197 193 193 193 193 198 197 199 212 218 215 216 218 223 212 215 232 202 146 108 112 132 100 47 43 122 181 210 261 93 74 333 325 5 32 80 345 328 340